Tracking 19730 objects as of 27-Jun-2019
HD Live streaming from Space Station
objects crossing your sky now

UNHA 3 R/B

Track UNHA 3 R/B now!
10-day predictions


NORAD ID: 41333
Int'l Code: 2016-009B
Perigee: 432.0 km
Apogee: 486.7 km
Inclination: 97.4 °
Period: 93.6 minutes
Semi major axis: 6830 km
RCS: Unknown
Launch date: February 7, 2016
Source: North Korea (NKOR)
Launch site: Yunsong, DPRK (YUN)

Note: This is a ROCKET BODY
aabbcc
Your satellite tracking list
Your tracking list is empty




NASA's NSSDC Master Catalog

Two Line Element Set (TLE):
1 41333U 16009B   19177.66441264 +.00000954 +00000-0 +27218-4 0  9990
2 41333 097.3843 257.0032 0040027 229.4633 130.3124 15.37938067189642
Source of the keplerian elements: AFSPC